This is the latest recevied weather packets stored in our database for station/object KN6CRX-10. If no packets are shown the sender has not sent any weather packets the latest 10 day(s).
| Time | Temp. | Humidity | Pressure | Rain* | Wind** | Luminosity | Snow |
|---|---|---|---|---|---|---|---|
| 1788141931 | 20.56° C | 28% | 1018.4 hPa | 0 mm | - | 3 W/m² | - |
| 1788141625 | 20.56° C | 28% | 1018.3 hPa | 0 mm | - | 5 W/m² | - |
| 1788141321 | 20.56° C | 28% | 1018.4 hPa | 0 mm | - | 8 W/m² | - |
| 1788141016 | 21.11° C | 29% | 1018.3 hPa | 0 mm | - | 11 W/m² | - |
| 1788140710 | 21.67° C | 29% | 1018.4 hPa | 0 mm | - | 14 W/m² | - |
| 1788140406 | 22.22° C | 27% | 1018 hPa | 0 mm | - | 18 W/m² | - |
| 1788140103 | 22.78° C | 28% | 1018.3 hPa | 0 mm | - | 22 W/m² | - |
| 1788139801 | 23.33° C | 26% | 1018.2 hPa | 0 mm | - | 29 W/m² | - |
| 1788139497 | 23.33° C | 25% | 1018.3 hPa | 0 mm | - | 37 W/m² | - |
| 1788139196 | 23.33° C | 26% | 1018.2 hPa | 0 mm | - | 46 W/m² | - |
| 1788138891 | 23.89° C | 26% | 1018.5 hPa | 0 mm | - | 45 W/m² | - |
| 1788138587 | 23.89° C | 26% | 1018.5 hPa | 0 mm | - | 37 W/m² | - |
| 1788138287 | 24.44° C | 25% | 1018.4 hPa | 0 mm | - | 61 W/m² | - |
| 1788137983 | 23.89° C | 27% | 1018.4 hPa | 0 mm | - | 43 W/m² | - |
| 1788137679 | 23.89° C | 27% | 1018.3 hPa | 0 mm | - | 41 W/m² | - |
| 1788137377 | 24.44° C | 26% | 1018.3 hPa | 0 mm | - | 39 W/m² | - |
| 1788137074 | 25° C | 25% | 1018.5 hPa | 0 mm | - | 78 W/m² | - |
| 1788136770 | 25° C | 24% | 1018.6 hPa | 0 mm | - | 50 W/m² | - |
| 1788136465 | 25° C | 24% | 1018.4 hPa | 0 mm | - | 41 W/m² | - |
| 1788136165 | 25° C | 23% | 1018.6 hPa | 0 mm | - | 50 W/m² | - |
| 1788135864 | 25° C | 24% | 1018.4 hPa | 0 mm | - | 43 W/m² | - |
| 1788135560 | 25° C | 25% | 1018.4 hPa | 0 mm | - | 44 W/m² | - |
| 1788135255 | 25° C | 25% | 1018.4 hPa | 0 mm | - | 44 W/m² | - |
| 1788134952 | 25° C | 25% | 1018.6 hPa | 0 mm | - | 48 W/m² | - |
| 1788134648 | 25° C | 24% | 1018.4 hPa | 0 mm | - | 58 W/m² | - |
* Rain latest hour (hover to see other rain measurements)
** Current wind speed in m/s (hover to see current wind gust speed)